Vorticity
nan nan nan nan nan nan nan nan nan nan nan nan nan nan nan nan nan nan nan nan nan nan nan nan nan nan nan nan nan nan nan nan nan nan nan nan nan nan nan nan nan nan nan nan nan nan nan nan nan nan nan nan nan nan nan nan nan nan nan nan nan nan nan nan nan nan nan nan nan nan nan nan nan nan nan nan nan nan nan nan nan nan nan nan nan nan nan nan nan nan nan nan nan nan nan nan nan nan nan nan nan nan nan
nan 6 5 4 5 4 4 4 3 3 3 1 2 3 4 5 5 5 4 4 4 5 5 4 4 4 5 6 7 8 8 6 4 4 5 5 5 4 3 3 4 5 6 7 7 7 6 7 6 5 5 6 6 6 6 6 5 4 4 7 8 8 7 6 4 5 5 6 6 5 5 4 3 3 2 3 3 3 4 4 4 4 4 4 5 5 5 6 5 5 5 4 4 4 5 5 6 6 5 5 4 4 nan
nan 4 4 4 5 4 2 3 4 4 4 3 4 4 5 6 6 6 5 4 5 5 5 4 3 3 4 5 6 7 7 7 6 6 5 5 4 3 3 3 4 4 5 7 8 8 9 6 5 5 6 6 6 5 5 6 6 7 8 9 10 9 7 6 5 5 5 5 4 4 4 3 3 3 3 3 4 4 4 4 4 4 4 5 5 5 6 6 6 6 5 4 3 3 4 5 5 6 6 6 5 5 nan
nan 3 3 4 5 5 2 2 3 4 4 5 5 5 5 5 5 5 5 5 5 5 5 4 3 3 3 4 4 5 6 7 7 7 6 5 4 3 3 4 4 4 5 7 9 10 10 7 6 6 7 7 7 8 7 7 7 7 9 10 9 8 5 5 5 6 6 5 4 3 3 3 3 3 3 3 4 4 5 4 4 4 5 5 5 5 5 5 6 7 6 5 4 3 3 4 5 6 7 7 6 6 nan
nan 3 3 4 6 7 5 3 4 4 4 4 4 4 3 3 3 3 3 4 4 4 3 3 3 3 3 4 4 4 6 7 7 7 6 5 4 4 4 4 4 5 6 8 9 9 7 7 7 7 7 8 8 9 8 8 7 7 8 7 6 5 4 5 6 7 6 5 4 3 3 3 3 3 3 4 4 4 4 4 4 5 5 5 5 5 5 5 6 7 7 7 6 4 3 3 4 5 6 7 7 7 nan
nan 4 5 6 7 8 7 5 5 4 4 4 3 3 2 2 2 2 2 3 3 3 3 3 3 3 4 4 4 5 5 6 6 7 6 5 5 4 4 5 5 5 6 8 8 6 4 5 6 6 6 7 6 6 7 8 8 7 6 5 4 4 5 5 7 7 6 5 4 4 3 3 4 4 4 4 4 4 4 5 4 4 5 5 5 5 5 4 5 5 7 8 8 6 5 3 4 5 5 6 7 7 nan
nan 7 9 10 10 9 8 6 5 3 3 3 3 3 2 2 2 2 2 3 3 4 4 4 4 4 4 5 5 5 5 5 6 6 6 6 6 5 5 5 6 6 7 8 7 6 3 3 4 4 5 6 6 5 5 5 6 6 7 6 5 4 6 6 6 6 6 5 5 4 4 5 5 5 5 5 5 5 5 5 4 4 4 5 5 5 5 4 4 4 6 8 9 9 7 5 4 4 5 6 6 6 nan
nan 8 10 11 9 7 6 5 4 3 3 3 3 2 2 2 2 2 3 4 5 5 5 5 5 5 5 5 5 5 5 5 5 5 6 6 6 6 6 6 7 7 8 7 7 6 3 2 3 5 6 7 6 5 3 5 6 8 9 8 8 8 7 6 5 4 4 4 5 5 5 5 5 5 5 5 5 5 5 5 5 4 4 4 5 5 5 4 4 4 4 6 9 9 9 7 6 5 5 5 6 6 nan
nan 6 7 7 5 4 4 3 2 2 2 2 2 2 2 2 3 3 4 5 5 6 6 6 6 6 6 5 5 5 5 5 4 4 5 6 6 6 6 7 7 8 8 7 7 6 4 3 4 5 6 5 5 4 4 6 7 7 8 7 8 8 7 6 5 4 4 5 5 5 6 5 5 5 5 5 5 6 6 5 5 5 5 4 4 5 5 5 4 4 4 5 7 8 10 9 8 6 5 5 5 6 nan
nan 4 3 3 2 2 2 2 1 1 1 1 2 2 2 3 3 4 4 5 6 6 6 6 6 6 5 5 5 5 5 4 4 4 4 5 5 6 6 7 8 8 8 7 6 6 3 2 3 4 5 4 4 4 6 7 6 6 6 6 6 5 6 7 6 5 5 5 6 6 6 5 5 4 4 4 5 5 6 6 6 6 5 5 5 5 5 5 5 4 4 4 5 7 8 9 8 8 6 5 5 5 nan
nan 3 2 2 2 1 1 1 1 1 1 2 2 2 2 3 3 4 5 5 6 6 6 6 6 5 5 5 5 5 5 5 5 5 5 5 5 5 6 7 8 8 8 7 6 6 5 3 3 3 4 4 4 6 8 8 8 7 8 6 6 4 5 6 6 6 6 6 6 6 6 5 4 4 4 4 5 5 6 7 7 7 6 5 5 5 5 5 5 5 4 4 4 4 6 7 8 8 7 6 5 5 nan
nan 3 1 2 2 2 2 2 2 2 2 3 3 3 3 4 4 5 5 6 6 6 6 6 5 5 5 5 5 5 5 5 5 5 5 5 5 5 6 6 7 7 7 6 7 8 10 6 5 4 3 5 7 9 9 9 10 9 7 5 4 5 5 6 6 6 6 6 6 6 6 5 4 4 4 4 5 5 6 7 7 7 6 6 6 6 5 5 5 5 5 4 4 3 4 5 6 7 8 7 7 6 nan
nan 4 4 3 3 4 4 3 3 3 3 3 3 3 4 4 5 5 6 6 6 6 5 5 5 5 5 5 5 5 5 5 6 6 6 5 5 5 5 6 6 6 5 6 9 11 11 8 7 6 5 8 9 9 8 8 10 10 6 6 5 5 5 5 6 6 6 6 6 6 6 5 5 4 4 4 5 6 7 7 7 7 7 6 6 6 6 5 5 5 5 5 4 4 3 4 5 6 8 8 8 7 nan
nan 6 6 5 5 5 5 5 5 4 3 3 3 4 4 5 5 6 6 6 6 6 5 5 5 5 5 5 5 6 6 7 7 7 7 6 6 5 5 5 5 4 4 9 11 11 8 7 7 9 9 8 9 9 7 8 10 11 7 8 6 5 5 5 5 5 6 6 6 6 6 5 5 5 5 5 5 6 7 7 7 7 7 6 6 6 6 6 6 6 5 5 5 4 4 4 4 4 6 8 8 8 nan
nan 6 6 6 6 6 6 6 5 4 3 3 3 4 5 6 6 6 6 6 6 6 5 5 5 5 5 5 6 7 8 9 9 9 9 8 7 7 6 5 4 5 7 12 11 8 6 5 6 8 9 7 8 10 10 9 9 11 10 8 7 6 5 5 5 5 5 5 6 6 6 6 6 6 5 5 5 6 6 7 7 7 7 7 6 6 6 6 6 6 6 6 6 5 5 4 4 4 4 6 7 8 nan
nan 5 5 6 6 6 6 5 4 3 2 3 4 5 5 6 6 6 6 6 6 5 5 5 6 6 6 6 6 8 13 13 13 12 12 11 10 10 9 6 5 7 13 11 10 7 6 6 6 7 7 6 6 8 9 9 10 10 11 9 8 6 5 5 4 4 5 5 5 5 6 6 6 6 6 6 6 6 6 6 7 7 7 7 6 6 6 6 6 6 6 6 6 6 6 5 5 4 4 4 6 7 nan
nan 6 6 6 6 6 5 4 4 3 3 3 4 5 6 6 6 6 6 6 6 6 6 6 6 6 6 6 8 11 15 16 17 17 17 15 14 13 12 11 11 10 13 9 8 8 8 7 7 7 8 7 7 8 8 9 10 10 10 9 8 7 6 5 5 4 4 5 5 5 6 6 6 6 6 6 6 6 6 6 6 6 7 7 7 6 6 6 6 6 7 7 7 7 6 6 6 5 4 4 4 5 nan
nan 9 7 6 6 5 4 4 3 3 3 4 5 5 6 6 6 6 6 6 6 6 6 6 7 7 7 8 11 14 12 12 14 16 20 21 19 19 17 19 19 16 10 9 8 7 7 7 7 7 9 9 8 8 8 9 11 10 9 9 8 7 6 5 5 5 5 5 5 5 5 6 6 6 6 6 6 6 6 6 6 6 7 7 7 6 6 6 6 6 6 6 6 7 7 7 6 6 5 5 4 4 nan
nan 11 8 7 6 4 3 3 3 4 4 4 5 6 6 7 7 7 7 7 7 7 7 6 7 8 9 12 14 13 9 8 9 10 14 21 23 25 26 24 23 19 11 9 8 6 6 6 6 7 9 10 9 8 8 8 10 10 9 8 8 7 6 6 5 5 5 5 5 5 5 5 6 6 6 6 6 6 6 6 6 6 6 7 7 7 6 6 6 6 6 6 6 7 7 7 7 6 6 6 5 4 nan
nan 12 10 9 8 7 6 5 6 6 7 6 6 8 11 12 11 11 9 10 9 8 7 7 9 13 14 16 14 10 8 8 8 8 9 13 18 23 26 23 20 15 13 11 9 7 7 7 7 7 8 9 9 8 7 7 9 9 9 8 8 7 7 6 6 6 5 5 5 5 5 5 6 6 6 6 6 6 6 6 6 7 7 7 7 7 7 6 6 6 6 6 6 6 6 7 7 7 7 7 6 6 nan
nan 10 11 13 14 14 13 12 13 13 15 13 11 13 16 18 18 18 17 17 17 15 14 13 15 17 18 15 12 9 8 9 9 8 9 9 10 12 15 15 13 11 12 12 10 8 8 9 9 8 8 8 9 9 8 6 7 8 8 9 9 8 8 7 7 6 6 6 5 5 5 5 5 6 6 6 6 6 6 7 7 7 7 7 7 7 7 7 7 7 6 6 6 6 6 6 6 6 7 7 7 7 nan
nan 8 10 12 16 18 18 18 18 18 22 22 16 13 13 16 18 20 22 21 22 23 24 23 19 17 16 14 12 10 9 9 9 7 7 7 7 7 7 8 7 8 9 10 9 8 8 8 8 9 8 8 8 8 9 7 7 7 8 9 9 10 9 9 8 7 6 6 6 5 5 5 5 6 6 6 6 7 7 7 7 7 7 7 7 7 7 7 7 7 7 7 7 7 6 6 6 7 6 6 7 7 nan
nan 7 8 9 11 13 14 14 14 15 20 22 14 10 10 9 11 13 16 16 18 19 21 20 17 15 13 13 12 10 9 8 6 5 6 6 6 6 6 5 5 5 7 7 6 7 7 7 7 8 8 7 7 8 9 9 8 8 8 9 9 10 10 10 9 8 7 6 6 5 5 5 5 6 6 6 7 7 7 7 6 6 7 7 7 7 7 7 7 7 7 7 7 7 7 7 7 7 6 6 6 7 nan
nan 7 7 8 8 8 8 8 9 9 13 13 9 8 7 7 7 8 9 10 10 10 11 11 11 10 9 8 8 8 7 6 6 5 5 5 5 6 6 5 5 5 6 6 6 6 7 7 7 7 7 7 7 7 8 10 9 9 9 9 9 10 10 10 9 8 7 6 6 5 5 6 6 6 6 7 7 7 7 7 7 6 6 6 6 6 6 6 6 6 7 7 7 7 8 7 7 7 7 7 6 6 nan
nan 7 7 8 8 8 7 7 7 7 8 7 7 6 6 7 7 8 8 8 8 7 8 8 7 7 6 6 7 7 6 7 7 7 6 6 6 6 6 6 6 6 6 7 7 7 7 6 7 7 7 7 7 8 8 10 10 10 10 10 11 11 11 10 9 8 7 6 6 5 5 6 6 6 6 7 7 7 7 7 7 7 7 7 7 7 6 6 6 6 6 7 7 7 8 8 8 8 7 7 7 7 nan
nan 7 7 8 8 8 7 7 7 7 7 7 7 7 7 7 8 8 9 8 8 7 7 7 7 7 7 7 7 8 8 9 9 9 8 8 8 8 7 8 8 7 6 7 8 8 7 7 7 6 6 7 7 8 9 9 10 11 11 11 12 12 11 11 10 8 7 6 6 5 5 5 6 6 6 7 7 7 7 8 8 8 8 8 8 8 8 7 7 7 6 6 7 7 7 7 8 8 8 8 8 8 nan
nan 7 7 7 8 8 7 8 8 8 8 8 7 7 7 7 8 8 8 8 8 8 7 7 8 9 9 9 9 9 10 10 10 10 10 10 10 10 9 9 9 8 8 8 8 8 8 7 7 6 6 7 7 7 9 10 10 10 10 12 12 12 12 11 11 9 8 6 6 5 5 5 5 5 6 6 6 6 7 8 8 9 9 9 9 9 9 9 9 8 8 7 8 7 7 7 7 7 8 8 8 8 nan
nan 8 8 8 8 8 8 8 8 8 8 8 8 8 7 7 8 8 7 8 8 7 8 8 9 9 9 9 9 9 9 9 8 8 9 10 10 9 8 8 8 9 9 8 8 7 7 7 7 7 7 6 7 7 8 10 10 9 10 11 12 12 12 12 11 10 9 7 6 6 5 5 5 5 5 5 6 6 6 7 8 9 9 10 10 10 11 11 10 10 10 10 10 9 9 8 8 7 7 7 7 8 nan
nan 8 9 8 8 8 8 8 8 8 8 8 8 8 8 8 8 7 7 7 7 7 7 7 8 8 7 7 8 8 8 7 6 7 8 8 7 6 6 7 8 8 8 8 7 7 7 7 7 7 8 7 7 7 7 10 10 9 10 10 11 12 12 12 12 11 11 9 7 6 6 5 5 5 5 5 5 5 6 6 7 8 9 10 10 11 11 11 11 11 11 12 11 11 11 10 9 9 8 7 7 8 nan
nan 9 9 8 9 9 9 8 9 9 9 8 7 7 8 8 7 7 7 7 7 7 6 7 7 7 7 7 7 7 7 7 7 7 7 7 6 5 6 7 7 7 7 8 9 9 9 8 8 8 9 9 8 7 7 9 11 11 9 9 10 11 12 12 12 12 11 10 8 7 6 6 5 6 5 5 5 6 6 6 7 8 9 9 10 10 11 11 11 11 11 12 12 12 12 12 12 11 11 10 9 8 nan
nan 8 8 8 9 9 8 8 9 9 9 8 7 7 7 7 7 7 8 8 7 7 7 8 8 8 8 8 8 8 8 8 8 8 8 8 7 7 7 6 6 7 8 10 10 9 9 9 9 9 8 8 8 8 8 8 10 12 10 10 10 11 12 13 13 12 11 10 9 7 7 6 6 6 6 6 6 6 5 6 7 7 8 8 9 10 10 10 10 10 10 11 11 12 12 12 12 13 12 12 12 11 nan
nan 8 8 8 8 9 8 8 8 8 8 8 7 7 7 7 7 8 8 8 7 7 7 8 8 8 9 9 9 8 8 8 8 8 9 10 10 10 9 8 8 9 10 9 9 8 9 10 9 8 7 6 6 8 8 8 9 11 12 12 11 11 12 13 13 13 11 10 9 8 7 6 6 6 6 6 6 6 6 6 6 7 7 8 8 9 9 10 9 10 10 10 11 11 12 12 12 13 13 13 13 12 nan
nan 8 8 8 8 8 8 8 8 8 8 8 8 8 8 8 8 8 8 7 7 7 8 8 9 9 9 9 8 8 8 8 8 8 9 10 10 11 11 10 11 11 10 9 9 9 8 9 9 8 8 8 7 7 7 7 8 10 14 14 13 12 12 13 13 13 12 11 10 8 7 7 7 6 6 6 6 6 6 6 6 6 7 7 8 8 8 9 9 9 10 10 10 11 11 12 13 13 12 12 12 12 nan
nan 8 8 8 8 8 8 8 8 8 8 8 8 7 8 8 8 8 8 8 8 8 9 9 9 9 9 8 8 8 8 8 8 8 8 8 8 8 8 10 11 11 10 9 9 9 9 8 9 9 8 7 7 7 7 8 9 10 12 12 13 13 12 13 14 14 13 12 11 10 9 8 7 7 7 7 7 7 6 6 6 6 6 7 7 7 7 7 8 8 9 9 9 10 11 12 12 12 12 12 12 12 nan
nan 8 8 9 9 8 8 8 8 8 9 8 8 7 8 9 9 9 9 9 9 9 9 9 9 9 9 9 9 9 8 8 8 8 7 7 7 7 8 9 10 10 9 9 9 9 9 8 8 7 6 6 7 8 9 9 9 9 9 10 12 14 15 15 16 17 15 14 14 12 11 9 9 8 8 8 8 8 7 7 6 6 6 6 6 6 7 7 7 7 7 8 8 9 9 10 11 12 12 12 12 12 nan
nan 8 8 9 9 9 8 8 7 8 9 9 8 7 8 10 11 10 9 9 9 9 8 8 8 8 9 9 9 9 9 9 9 9 8 8 9 9 9 8 9 9 9 10 10 9 7 7 6 6 6 8 9 10 9 9 9 8 8 10 12 14 17 19 18 18 18 17 16 15 14 12 11 10 9 9 9 8 8 7 7 6 6 6 6 6 6 6 6 7 7 7 7 8 8 9 10 10 11 12 12 12 nan
nan 9 8 9 9 9 7 7 7 7 8 9 8 8 9 11 10 10 9 9 9 9 9 7 7 8 10 10 8 8 9 9 9 9 9 9 9 9 9 9 10 10 9 9 9 7 6 6 6 7 7 9 9 9 10 10 9 8 9 9 10 12 13 15 15 16 18 18 17 18 17 15 13 12 10 10 9 9 8 8 7 7 6 6 6 6 6 6 6 6 6 7 7 7 8 8 8 9 10 11 11 11 nan
nan 9 9 7 8 8 7 7 6 8 9 9 9 9 10 10 10 9 8 8 9 9 9 8 8 9 10 9 8 7 7 8 8 8 8 8 9 9 9 9 9 9 8 8 7 6 6 7 7 7 7 7 8 8 10 9 7 7 8 8 8 9 9 8 8 10 14 17 18 19 19 18 17 15 13 11 10 9 8 8 7 7 7 7 6 6 6 6 5 5 6 6 7 7 7 8 8 8 8 9 10 10 nan
nan 9 8 7 6 6 7 6 6 9 10 9 9 9 10 10 9 9 8 7 8 8 9 9 9 9 8 7 7 6 7 9 9 8 8 8 8 9 8 7 8 7 6 7 7 7 7 8 7 7 7 8 9 9 9 6 5 6 7 7 7 7 7 7 8 10 12 15 18 20 19 19 19 18 17 14 12 10 9 8 8 8 8 8 7 6 6 5 5 5 5 6 7 7 7 7 8 8 8 8 8 8 nan
nan 9 8 7 6 6 6 5 8 11 11 9 9 9 10 9 8 8 8 7 8 8 8 9 10 9 8 7 7 7 7 8 9 9 8 8 8 8 7 6 7 6 6 7 8 8 8 7 7 8 9 9 10 9 7 4 4 6 7 8 7 7 7 9 10 13 14 16 17 18 17 16 18 20 20 17 15 13 12 11 10 9 9 8 8 7 6 6 5 5 5 6 6 7 7 8 8 8 8 9 9 8 nan
nan 9 8 7 7 6 5 6 10 12 11 9 9 9 9 8 7 7 8 8 9 7 7 9 9 9 8 8 8 8 8 8 8 8 8 7 7 7 7 7 7 7 6 7 9 9 8 8 8 9 10 9 9 7 4 4 6 8 9 8 8 9 10 11 12 15 16 16 15 13 12 12 13 17 20 18 18 18 17 16 14 13 11 9 8 7 7 6 6 6 5 5 6 6 8 9 10 10 10 11 10 10 nan
nan 9 8 7 7 6 6 8 10 11 10 9 10 9 9 7 7 7 8 9 10 8 6 7 8 9 9 8 8 8 8 9 8 7 6 7 7 7 7 7 8 8 8 9 10 10 8 8 8 9 9 9 7 5 5 7 9 11 12 11 12 12 11 11 12 12 12 12 11 10 8 7 7 11 14 15 17 20 21 22 21 19 16 13 11 9 9 8 7 7 6 5 5 7 9 10 11 11 12 12 12 12 nan
nan 8 8 8 7 6 6 8 9 10 10 10 9 9 9 7 7 7 8 8 9 9 6 5 7 10 10 8 8 8 8 9 9 7 5 6 6 7 8 9 9 10 10 10 10 9 8 7 7 7 8 9 7 7 9 11 13 14 15 15 13 10 7 7 9 7 7 9 9 9 7 5 5 7 9 11 13 16 20 22 23 24 23 20 18 15 13 12 10 9 8 7 7 8 9 10 10 10 11 12 12 13 nan
nan 8 8 7 7 6 7 9 10 10 10 9 9 9 8 7 7 8 9 8 9 9 8 6 6 8 9 8 7 8 9 8 7 6 6 6 7 7 9 12 11 10 9 8 8 7 7 7 6 8 10 10 9 11 13 13 13 15 15 12 9 4 2 4 6 6 6 9 10 9 7 5 5 6 8 10 12 14 15 16 19 22 24 25 24 23 21 19 17 15 13 12 11 10 10 9 8 8 9 9 9 10 nan
nan 8 7 7 7 5 7 9 10 10 9 9 9 9 8 7 7 8 9 9 8 9 9 7 7 8 9 8 8 8 8 7 6 5 6 8 9 10 12 12 10 8 7 8 8 8 7 7 8 11 11 11 11 13 12 9 10 11 9 8 7 3 2 4 5 7 9 12 12 8 6 6 7 8 10 12 13 13 11 10 11 13 17 20 22 23 24 24 24 22 20 17 15 13 12 11 10 9 9 8 7 8 nan
nan 8 7 6 6 6 7 9 10 10 9 9 9 8 8 8 8 8 9 9 8 8 9 9 8 8 8 7 8 8 7 7 6 6 9 11 11 10 11 10 8 7 8 9 9 9 8 8 10 11 11 11 11 10 7 5 7 8 7 6 7 4 3 5 6 8 12 13 10 6 4 6 7 9 11 12 12 10 7 5 5 6 8 10 11 13 16 20 23 24 22 19 17 15 14 14 14 14 12 11 10 9 nan
nan 9 7 6 7 7 7 9 10 9 9 9 9 8 8 9 8 8 8 8 8 7 8 9 9 9 7 7 10 9 7 6 7 9 12 11 9 7 8 10 9 9 9 10 9 8 7 9 10 10 11 10 9 7 5 6 7 8 7 7 7 5 5 6 7 9 13 11 5 4 5 6 7 11 12 10 9 8 6 5 4 3 3 3 3 4 6 11 15 18 17 15 13 13 14 15 15 15 15 14 13 13 nan
nan 10 7 6 7 8 7 8 10 9 9 9 9 7 8 9 9 9 10 9 8 7 7 8 9 10 9 10 10 7 6 6 7 10 11 10 10 7 8 10 11 11 11 10 8 5 6 10 11 12 11 7 6 5 5 7 7 8 7 7 7 6 6 6 7 10 12 6 2 3 6 8 8 11 11 10 8 7 7 6 5 4 4 3 2 3 5 8 10 10 9 8 8 8 10 10 11 11 12 13 15 16 nan
nan 10 8 6 6 8 8 8 9 9 9 9 8 7 6 7 8 8 10 11 10 10 9 8 8 9 10 10 8 6 5 6 8 11 12 10 9 9 9 11 11 11 11 9 7 5 8 14 13 11 6 4 5 5 6 7 7 8 8 8 7 6 5 7 9 11 8 3 3 5 8 10 10 11 10 9 8 7 6 7 7 6 4 3 6 7 11 10 8 7 5 4 5 5 6 7 6 6 7 9 11 13 nan
nan 9 9 7 7 7 8 8 9 9 9 9 8 7 6 6 7 7 8 10 12 12 11 9 8 8 9 9 8 6 5 6 9 13 13 9 8 7 9 11 11 12 10 8 7 8 13 14 11 6 3 5 5 6 7 8 8 9 9 8 8 6 6 8 10 10 6 5 7 8 9 10 11 10 9 7 7 6 6 7 6 6 6 7 11 15 14 11 10 7 4 3 4 5 6 6 6 6 7 7 7 9 nan
nan 9 9 9 8 7 7 8 9 9 8 8 8 7 5 5 8 8 7 7 10 11 12 10 9 8 8 9 8 6 5 7 9 14 12 6 7 8 9 9 10 11 9 8 9 12 14 11 5 -0 2 7 7 8 9 10 9 10 9 7 6 6 7 9 9 8 7 8 9 9 8 9 10 9 6 4 4 4 5 6 6 7 8 10 12 13 11 8 5 4 2 3 5 7 8 8 8 9 8 8 8 8 nan
nan 9 10 9 8 8 7 8 8 7 8 9 8 8 5 5 7 8 8 6 7 9 11 11 10 9 8 8 8 6 5 8 9 11 10 7 9 11 11 9 9 7 7 9 12 14 13 7 2 -3 1 7 10 11 11 11 9 8 7 6 5 6 9 9 9 8 8 8 8 8 8 9 8 6 3 2 3 5 6 6 7 8 9 8 8 7 7 5 3 0 1 6 7 8 9 9 9 8 8 10 11 11 nan
nan 10 11 10 9 9 8 7 7 8 9 9 9 8 7 6 7 8 8 8 7 7 8 9 10 10 8 8 8 6 6 8 8 10 10 10 11 12 12 10 8 6 6 10 11 12 10 5 3 1 4 8 11 12 11 9 7 6 6 6 7 9 9 9 9 9 8 7 7 7 8 8 6 4 2 4 6 8 7 7 8 8 8 8 9 10 9 6 3 4 9 9 9 11 11 9 8 9 12 15 17 18 nan
nan 8 10 11 10 10 9 8 7 7 9 10 9 8 7 7 8 8 8 8 8 7 7 8 10 10 9 9 9 8 6 7 8 9 9 9 10 11 11 10 8 8 8 8 8 9 6 2 2 6 9 12 12 11 9 7 6 6 6 7 8 9 9 9 9 8 6 7 8 7 7 7 5 3 4 7 10 10 9 8 8 8 8 8 9 9 7 4 5 10 14 13 12 11 9 8 10 13 18 23 27 28 nan
nan 8 9 11 11 10 9 8 8 7 9 10 9 8 7 7 8 8 7 7 7 8 8 8 8 10 10 9 9 9 8 7 7 7 8 9 9 10 10 9 9 11 11 9 8 6 2 1 7 12 13 12 11 9 7 6 7 7 5 6 8 8 8 9 8 7 7 8 7 6 7 7 6 5 7 11 11 9 8 8 9 9 9 9 9 7 5 6 10 16 15 12 10 10 6 10 16 19 23 26 28 28 nan
nan 8 8 9 10 11 10 8 8 8 9 10 9 8 8 7 7 7 7 6 7 8 10 9 9 10 9 8 8 9 10 8 6 5 7 8 8 11 12 9 9 8 10 10 8 7 2 5 12 16 11 8 8 8 7 7 7 6 6 8 7 7 8 8 8 8 7 6 7 7 8 7 7 9 12 12 9 8 8 9 10 11 11 10 10 10 9 10 12 12 11 10 10 10 5 13 20 21 20 18 17 17 nan
nan 7 8 8 9 11 10 8 7 8 9 9 9 9 8 7 7 7 7 7 7 8 9 9 9 10 9 9 8 10 10 8 6 6 7 8 8 10 12 10 9 7 6 5 6 7 5 8 12 11 7 6 6 7 7 7 7 8 8 7 7 7 7 8 8 7 5 5 7 8 8 8 9 11 11 9 9 9 9 10 10 10 10 10 10 10 9 7 8 8 8 8 6 5 8 12 15 13 9 8 8 8 nan
nan 8 7 8 9 10 10 9 8 7 8 9 10 9 8 8 8 7 7 7 7 7 9 11 10 9 9 10 10 9 8 8 8 8 8 9 8 7 8 9 9 8 7 5 4 4 7 10 11 7 6 6 8 7 8 8 9 10 8 7 6 6 6 6 7 6 6 6 7 8 9 9 9 9 9 9 10 10 10 10 10 10 10 10 11 10 7 5 6 6 4 1 1 2 9 4 5 3 1 2 3 4 nan
nan 8 8 8 8 9 10 9 8 7 7 9 10 9 8 7 8 8 8 7 6 7 10 11 10 8 8 10 10 9 8 9 10 9 9 9 8 7 6 7 8 8 8 7 6 7 8 8 8 7 6 6 8 10 9 7 7 7 7 6 6 6 7 8 8 8 8 8 8 9 9 9 8 9 9 10 10 10 10 10 10 10 11 11 10 8 5 6 7 6 4 3 4 6 9 -1 -4 -3 -1 1 2 3 nan
nan 9 8 7 8 9 10 9 9 8 8 9 10 9 8 8 8 8 8 7 5 7 10 10 10 9 9 9 10 9 9 9 9 9 10 9 7 6 6 8 9 9 8 8 9 10 9 7 6 6 7 7 6 7 6 8 7 6 5 4 5 7 10 10 10 10 10 9 9 9 9 8 8 9 9 9 9 9 9 8 9 9 10 9 8 7 8 9 10 10 11 11 9 4 0 -2 -3 -2 -0 1 2 3 nan
nan nan nan nan nan nan nan nan nan nan nan nan nan nan nan nan nan nan nan nan nan nan nan nan nan nan nan nan nan nan nan nan nan nan nan nan nan nan nan nan nan nan nan nan nan nan nan nan nan nan nan nan nan nan nan nan nan nan nan nan nan nan nan nan nan nan nan nan nan nan nan nan nan nan nan nan nan nan nan nan nan nan nan nan nan nan nan nan nan nan nan nan nan nan nan nan nan nan nan nan nan nan nan
CAPE
239 201 179 144 88 88 49 22 22 22 22 23 24 24 31 30 30 27 26 25 25 19 8 2 1 1 2 5 7 7 9 15 17 17 9 2 2 nan nan nan nan nan nan nan nan nan nan nan nan nan nan nan nan nan nan nan nan nan nan nan nan nan nan nan nan nan nan nan nan nan nan 3 5 5 2 0 0 nan nan nan nan nan 0 3 8 8 32 52 55 55 21 2 0 0 1 3 3 6 19 41 41 53 45
259 193 160 130 87 87 73 49 51 51 35 25 25 25 29 28 28 23 20 17 17 13 4 nan nan nan nan nan 3 3 4 7 6 6 2 nan nan nan nan nan nan nan nan nan nan nan nan nan nan nan nan nan nan nan nan nan nan nan nan nan nan nan nan nan nan nan nan nan nan nan nan nan 0 0 1 1 1 nan nan nan nan nan nan 1 3 3 14 65 107 107 66 10 0 0 nan nan nan 0 2 9 9 22 22
244 195 169 134 102 102 98 85 57 57 35 30 20 20 23 24 24 28 26 15 15 4 0 nan nan nan nan nan nan nan 4 4 1 1 0 nan nan nan nan nan nan nan nan nan nan nan nan nan nan nan nan nan nan nan nan nan nan nan nan nan nan nan nan nan nan nan nan nan nan nan nan nan nan nan nan nan nan nan nan nan nan 0 0 0 0 0 6 66 129 129 125 49 3 3 nan nan nan nan nan nan nan 0 4
261 242 219 194 119 119 121 91 54 54 26 13 12 12 20 22 22 32 33 22 22 4 nan nan nan nan nan nan nan nan 1 4 2 2 0 nan nan nan nan nan nan nan nan nan nan nan nan nan nan nan nan nan nan nan nan nan nan nan nan nan nan nan nan nan nan nan nan nan nan nan nan nan nan nan nan nan nan nan nan nan nan 9 17 3 nan nan 2 67 163 163 196 113 51 51 8 0 0 nan nan nan nan nan nan
221 220 219 207 108 108 107 68 43 43 20 11 26 26 20 30 30 22 7 0 0 nan nan nan nan nan nan nan nan nan nan nan 0 0 0 nan nan nan nan nan nan nan nan nan 0 0 nan nan nan nan nan nan nan nan nan nan nan nan nan nan nan nan nan nan nan nan nan nan nan nan nan nan nan nan nan nan nan nan nan nan nan 1 24 23 4 4 3 70 184 184 239 216 126 126 60 22 22 6 nan nan nan nan nan
209 199 184 165 86 86 79 54 30 30 21 25 35 35 30 23 23 9 0 nan nan nan nan nan nan nan nan nan nan nan nan nan 2 2 1 0 0 nan nan nan nan nan nan nan nan nan nan nan nan nan nan nan nan nan nan nan nan nan nan nan nan nan nan nan nan nan nan nan nan nan nan nan nan nan nan nan nan nan nan nan nan nan 22 45 26 26 14 61 168 168 304 304 215 215 124 61 61 37 15 2 2 0 1
301 255 193 150 98 98 72 40 24 24 29 49 44 44 39 23 23 9 nan nan nan nan nan nan nan nan nan nan nan nan nan nan 1 1 1 0 0 nan nan nan nan nan nan 0 nan nan nan nan nan nan nan nan nan nan nan nan nan nan nan nan nan nan nan nan nan nan nan nan nan nan nan nan nan nan nan nan nan nan nan nan nan nan 10 43 48 48 27 53 137 137 262 376 349 349 212 109 109 68 39 23 23 10 5
323 262 187 154 123 123 94 76 56 56 53 49 43 43 38 22 22 8 nan nan nan nan nan nan nan nan nan nan nan nan nan nan nan nan 0 0 0 nan nan nan nan nan nan nan nan nan nan nan nan nan nan nan nan nan nan nan nan nan nan nan nan nan nan nan nan nan nan nan nan nan nan nan nan nan nan nan nan nan nan nan nan nan nan 26 56 56 42 62 109 109 220 350 426 426 323 190 190 119 78 47 47 29 21
307 266 190 147 139 139 119 98 87 87 73 58 43 43 37 21 21 7 nan nan nan nan nan nan nan nan nan nan nan nan nan nan nan nan nan nan nan nan nan nan nan 0 nan nan nan nan nan nan nan nan nan nan nan nan nan nan nan nan nan nan nan nan nan nan nan nan nan nan nan nan nan nan nan nan nan nan nan nan nan nan nan nan nan 9 45 45 49 61 84 84 151 282 428 428 428 298 298 170 106 68 68 57 38
312 271 195 140 132 132 112 101 79 79 75 60 54 54 37 20 20 6 nan nan nan nan nan nan nan nan nan nan nan nan nan nan nan nan nan nan nan nan 0 1 1 1 1 nan nan nan nan nan nan nan nan nan nan nan nan nan nan nan nan nan nan nan nan nan nan nan nan nan nan nan nan nan nan nan nan nan nan nan nan nan nan nan nan nan 24 24 34 50 71 71 121 184 353 353 459 402 402 274 154 106 106 90 67
358 311 242 168 147 147 137 126 113 113 109 94 66 66 38 21 21 nan nan nan nan nan nan nan nan nan nan nan nan nan nan nan nan nan nan nan nan nan 0 5 5 15 3 nan nan nan nan nan nan nan nan nan nan nan nan nan nan nan nan nan nan nan nan nan nan nan nan nan nan nan nan nan nan nan nan nan nan nan nan nan nan nan nan nan 7 7 27 43 60 60 92 149 260 260 403 466 466 377 255 154 154 120 92
390 378 310 183 188 188 177 152 138 138 122 94 56 56 29 5 5 nan nan nan nan nan nan nan nan nan nan nan nan nan nan nan nan nan nan nan nan nan nan 9 9 15 3 nan nan nan nan nan nan nan nan nan nan nan nan nan nan nan nan nan nan nan nan nan nan nan nan nan nan nan nan nan nan nan nan nan nan nan nan nan nan nan nan nan 0 0 14 29 52 52 68 115 177 177 302 437 437 507 388 259 259 156 123
428 456 374 228 204 204 207 181 140 140 99 61 26 26 11 0 0 nan nan nan nan nan nan nan nan nan nan 2 4 4 3 3 2 2 1 nan nan nan nan 1 1 5 0 nan nan nan nan nan nan nan nan nan nan nan nan nan nan nan nan nan nan nan nan nan nan nan nan nan nan nan nan nan nan nan nan 0 0 0 0 1 1 0 nan nan nan nan 1 15 35 35 50 88 127 127 195 330 330 446 484 425 425 264 177
460 486 404 280 238 238 226 184 117 117 66 31 10 10 4 0 0 2 1 nan nan nan nan nan nan nan nan 0 1 1 3 7 11 11 10 3 3 0 nan nan nan nan nan nan nan nan nan nan nan nan nan nan nan nan nan nan nan nan nan nan nan nan nan nan nan nan nan nan nan nan nan nan nan nan nan 0 0 0 0 0 0 2 2 0 0 0 0 1 14 14 33 66 99 99 142 215 215 336 483 522 522 431 296
448 351 221 157 229 229 232 161 94 94 56 31 26 26 19 23 23 16 12 9 9 0 nan nan nan nan 1 3 5 5 7 6 17 17 15 6 6 0 nan nan nan nan nan nan nan nan nan nan nan nan nan nan nan nan nan nan nan nan nan nan nan nan nan nan nan nan nan nan nan nan nan nan nan nan nan nan nan nan nan 1 1 3 4 5 2 2 1 0 4 4 18 39 77 77 113 178 178 263 367 490 490 566 439
145 72 36 124 163 163 192 137 97 97 69 65 60 60 53 58 58 51 31 25 25 11 2 nan nan nan 1 3 15 15 19 18 3 3 7 4 4 0 nan nan nan nan nan nan nan nan nan nan nan nan nan nan nan nan nan nan nan nan nan nan nan nan nan nan nan nan nan nan nan nan nan nan nan nan nan nan nan nan nan 0 0 1 3 9 14 14 8 3 3 3 8 17 47 47 77 145 145 200 292 401 401 533 539
nan nan nan 73 116 116 141 127 111 111 95 91 86 86 80 73 73 66 72 50 50 29 12 7 1 1 0 11 31 31 nan nan nan nan nan nan nan nan nan nan nan nan nan nan nan nan nan nan nan nan nan nan nan nan nan nan nan nan nan nan nan nan nan nan 1 1 3 2 0 0 nan nan nan nan nan nan nan nan nan nan nan 0 1 4 12 12 13 11 8 8 4 9 25 25 48 105 105 150 206 325 325 439 579
nan nan 19 31 85 85 106 130 127 127 123 105 100 100 94 103 103 96 88 66 66 57 35 25 10 10 8 27 33 33 nan nan nan nan nan nan nan nan nan nan nan nan nan nan nan nan nan nan nan nan nan nan nan nan nan nan nan nan nan nan nan 0 0 2 10 10 14 16 15 15 11 7 6 6 8 9 9 6 4 2 2 0 0 5 4 4 11 12 9 9 12 15 24 24 27 74 74 111 178 237 237 362 520
nan nan 5 33 57 57 97 119 130 130 125 106 115 115 125 120 120 113 106 83 83 75 67 57 21 21 16 29 nan nan nan nan nan nan nan nan nan nan nan nan nan nan nan nan nan nan nan nan nan nan nan nan nan nan nan nan nan nan 0 6 6 6 6 10 18 18 26 28 27 27 25 24 33 33 37 45 45 44 33 25 25 11 7 2 2 2 2 4 8 8 19 25 15 15 25 49 49 81 139 189 189 273 373
nan nan nan 11 31 31 35 39 44 44 74 110 90 90 132 109 109 70 111 139 139 115 126 117 39 39 12 nan nan nan nan nan nan nan nan nan nan nan nan nan nan nan nan nan nan nan nan nan nan nan nan nan nan nan nan nan nan nan 9 43 43 61 52 57 63 63 69 77 85 85 108 114 120 120 128 137 137 146 138 130 130 104 81 47 22 22 5 2 2 2 4 19 16 16 30 39 39 47 57 95 95 141 190
nan nan nan nan nan nan nan nan nan nan 2 82 nan nan nan nan nan nan 47 26 26 80 163 116 nan nan nan nan nan nan nan nan nan nan nan nan nan nan nan nan nan nan nan nan nan nan nan nan nan nan nan nan nan nan nan nan nan nan 7 62 62 102 89 95 121 121 129 136 166 166 173 161 170 170 180 189 189 199 187 176 176 164 151 105 66 66 25 12 3 3 4 6 8 8 26 42 42 38 48 59 59 84 130
nan nan nan nan nan nan nan nan nan nan nan 43 nan nan nan nan nan nan nan nan nan nan nan nan nan nan nan nan nan nan nan nan nan nan nan nan nan nan nan nan nan nan nan nan nan nan nan nan nan nan nan nan nan nan nan nan nan nan 3 51 51 109 95 120 171 171 180 188 197 197 205 215 223 223 256 266 266 254 262 269 269 253 237 200 147 147 99 58 26 26 12 4 4 4 10 19 19 32 53 50 50 61 89
nan nan nan nan nan nan nan nan nan nan nan nan nan nan nan nan nan nan nan nan nan nan nan nan nan nan nan nan nan nan nan nan nan nan nan nan nan nan nan nan nan nan nan nan nan nan nan nan nan nan nan nan nan nan nan nan nan nan nan 40 40 94 119 125 177 177 210 245 254 254 263 271 279 279 288 297 297 307 342 326 326 333 313 294 253 253 212 155 87 87 36 10 6 6 7 13 13 21 49 45 45 54 65
nan nan nan nan nan nan nan nan nan nan nan nan nan nan nan nan nan nan nan nan nan nan nan nan nan nan nan nan nan nan nan nan nan nan nan nan nan nan nan nan nan nan nan nan nan nan nan nan nan nan nan nan nan nan nan nan nan nan 0 8 8 65 105 111 184 184 218 254 265 265 301 309 342 342 349 329 329 364 348 357 357 392 396 375 352 352 307 263 202 202 127 43 13 13 9 12 12 17 26 43 43 38 44
nan nan nan nan nan nan nan nan nan nan nan nan nan nan nan nan nan nan nan nan nan nan nan nan nan nan nan nan nan nan nan nan nan nan nan nan nan nan nan nan nan nan nan nan nan nan nan nan nan nan nan nan nan nan nan nan nan nan 0 6 6 15 59 97 144 144 199 261 273 273 311 349 357 357 337 344 344 377 383 390 390 396 402 405 411 411 388 363 315 315 248 150 63 63 32 21 21 19 22 25 25 29 32
nan nan nan nan nan nan nan nan nan nan nan nan nan nan nan nan nan nan nan nan nan nan nan nan nan nan nan nan nan nan nan nan nan nan nan nan nan nan nan nan nan nan nan nan nan nan nan nan nan nan nan nan nan nan nan nan nan nan nan 2 2 11 19 51 105 105 177 213 279 279 292 331 342 342 352 362 362 396 398 428 428 431 432 437 440 440 446 448 421 421 368 249 148 148 90 56 56 38 29 24 24 28 31
nan nan nan nan nan nan nan nan nan nan nan nan nan nan nan nan nan nan nan nan nan nan nan nan nan nan nan nan nan nan nan nan nan nan nan nan nan nan nan nan nan nan nan nan nan nan nan nan nan nan nan nan nan nan nan nan nan nan nan nan nan 4 13 29 71 71 155 189 253 253 268 307 349 349 334 375 375 414 449 448 448 474 467 472 476 476 480 512 515 515 455 345 253 253 189 118 118 83 53 38 38 31 34
nan nan nan nan nan nan nan nan nan nan nan nan nan nan nan nan nan nan nan nan nan nan nan nan nan nan nan nan nan nan nan nan nan nan nan nan nan nan nan nan nan nan nan nan nan nan nan nan nan nan nan nan nan nan nan nan nan nan nan nan nan nan 5 13 30 30 95 167 231 231 303 314 327 327 340 385 385 395 434 470 470 500 519 517 487 487 493 528 569 569 534 411 353 353 306 236 236 155 92 56 56 45 43
nan nan nan nan nan nan nan nan nan nan nan nan nan nan nan nan nan nan nan nan nan nan nan nan nan nan nan nan nan nan nan nan nan nan nan nan nan nan nan nan nan nan nan nan nan nan nan nan nan nan nan nan nan nan nan nan nan nan nan nan nan nan 0 8 12 12 35 106 186 186 254 296 338 338 349 360 360 402 445 454 454 460 519 503 494 494 509 544 559 559 558 451 435 435 375 319 319 269 200 108 108 76 54
nan nan nan nan nan nan nan nan nan nan nan nan nan nan nan nan nan nan nan nan nan nan nan nan nan nan nan nan nan nan nan nan nan nan nan nan nan nan nan nan nan nan nan nan nan nan nan nan nan nan nan nan nan nan nan nan nan nan nan nan nan nan nan 4 9 9 10 45 153 153 213 251 291 291 330 338 338 380 422 432 432 409 442 439 498 498 525 553 561 561 572 506 449 449 422 397 397 367 313 237 237 150 103
nan nan nan nan nan nan nan nan nan nan nan nan nan nan nan nan nan nan nan nan nan nan nan nan nan nan nan nan nan nan nan nan nan nan nan nan nan nan nan nan nan nan nan nan nan nan nan nan nan nan nan nan nan nan nan nan nan nan nan nan nan nan nan 1 9 9 8 22 80 80 155 214 278 278 315 322 322 332 372 381 381 389 395 370 367 367 420 581 658 658 622 553 486 486 496 470 470 414 381 361 361 311 208
nan nan nan nan nan nan nan nan nan nan nan nan nan nan nan nan nan nan nan nan nan nan nan nan nan nan nan nan nan nan nan nan nan nan nan nan nan nan nan nan nan nan nan nan nan nan nan nan nan nan nan nan nan nan nan nan nan nan nan nan nan nan nan 0 7 7 11 17 65 65 158 211 271 271 305 342 342 352 361 368 368 375 355 362 334 334 331 414 506 506 607 565 495 495 471 444 444 410 427 435 435 417 357
nan nan nan nan nan nan nan nan nan nan nan nan nan nan nan nan nan nan nan nan nan nan nan nan nan nan nan nan nan nan nan nan nan nan nan nan nan nan nan nan nan nan nan nan nan nan nan nan nan nan nan nan nan nan nan nan nan nan nan nan nan nan nan 0 5 5 12 24 40 40 136 211 267 267 300 303 303 342 354 364 364 344 350 328 306 306 279 356 410 410 467 489 454 454 483 460 460 471 488 448 448 506 471
nan nan nan nan nan nan nan 1 nan nan nan nan nan nan nan nan nan nan nan nan nan nan nan nan nan nan nan nan nan nan nan nan nan nan nan nan nan nan nan nan nan nan nan nan nan nan nan nan nan nan nan nan nan nan nan nan nan nan nan nan nan nan nan nan 5 5 13 27 42 42 120 187 236 236 263 294 294 331 343 358 358 341 346 353 329 329 330 328 324 324 348 339 330 330 378 411 411 450 427 410 410 458 503
nan nan nan nan nan nan nan nan nan nan nan nan nan nan nan nan nan nan nan nan nan nan nan nan nan nan nan nan nan nan nan nan nan nan nan nan nan nan nan nan nan nan nan nan nan nan nan nan nan nan nan nan nan nan nan nan nan nan nan nan nan nan nan 1 6 6 14 27 46 46 63 147 187 187 232 257 257 291 330 344 344 358 366 372 347 347 349 352 352 352 350 319 284 284 272 320 320 407 411 429 429 400 489
nan nan nan nan nan nan nan nan nan nan nan nan nan nan nan nan nan nan nan nan nan nan nan nan nan nan nan nan nan nan nan nan nan nan nan nan nan nan nan nan nan nan nan nan nan nan nan nan nan nan nan nan nan nan nan nan nan nan nan nan nan nan nan 1 4 4 13 20 41 41 68 88 152 152 190 209 209 260 265 332 332 342 350 355 358 358 363 369 373 373 379 380 319 319 257 274 274 323 347 381 381 359 406
nan nan nan nan nan nan nan nan nan nan nan nan nan nan nan nan nan nan nan nan nan nan nan nan nan nan nan nan nan nan nan nan nan nan nan nan nan nan nan nan nan nan nan nan nan nan nan nan nan nan nan nan nan nan nan nan nan nan nan nan nan nan nan nan 0 0 7 20 34 34 64 92 118 118 170 210 210 226 274 274 274 304 333 364 339 339 375 382 392 392 402 434 403 403 344 284 284 225 271 324 324 356 363
nan nan nan nan nan nan nan nan nan nan nan nan nan nan nan nan nan nan nan nan nan nan nan nan nan nan nan nan nan nan nan nan nan nan nan nan nan nan nan nan nan nan nan nan nan nan nan nan nan nan nan nan nan nan nan nan nan nan nan nan nan nan nan nan nan nan nan 7 30 30 55 95 122 122 146 200 200 239 251 264 264 280 328 323 355 355 361 369 383 383 392 425 461 461 402 343 343 259 255 251 251 303 364
nan nan nan nan nan nan nan nan nan nan nan nan nan nan nan nan nan nan nan nan nan nan nan nan nan nan nan nan nan nan nan nan nan nan nan nan nan nan nan nan nan nan nan nan nan nan nan nan nan nan nan nan nan nan nan nan nan nan nan nan nan nan nan nan nan nan nan nan 3 3 52 81 117 117 146 173 173 225 261 268 268 292 303 323 353 353 357 364 373 373 382 447 455 455 429 374 374 316 259 253 253 277 305
nan nan nan nan nan nan nan nan nan nan nan nan nan nan nan nan nan nan nan nan nan nan nan nan nan nan nan nan nan nan nan nan nan nan nan nan nan nan nan nan nan nan nan nan nan nan nan nan nan nan nan nan nan nan nan nan nan nan nan nan nan nan nan nan nan nan nan nan nan nan 29 60 103 103 147 180 180 207 259 294 294 289 286 301 325 325 356 361 369 369 406 440 477 477 453 399 399 310 296 240 240 236 264
nan nan nan nan nan nan nan nan nan nan nan nan nan nan nan nan nan nan nan nan nan nan nan nan nan nan nan nan nan nan nan nan nan nan nan nan nan nan nan nan nan nan nan nan nan nan nan nan nan nan nan nan nan nan nan nan nan nan nan nan nan nan nan nan nan nan nan nan nan nan nan 56 76 76 122 161 161 191 199 236 236 242 263 290 305 305 330 362 369 369 403 438 466 466 439 346 346 285 289 266 266 245 267
nan nan nan nan nan nan nan nan nan nan nan nan nan nan nan nan nan nan nan nan nan nan nan nan nan nan nan nan nan nan nan nan nan nan nan nan nan nan nan nan nan nan nan nan nan nan nan nan nan nan nan nan nan nan nan nan nan nan nan nan nan nan nan nan nan nan nan nan nan nan nan 17 17 17 49 90 90 140 168 180 180 193 227 270 305 305 347 374 406 406 434 456 391 391 446 389 389 371 345 294 294 244 264
nan nan nan nan nan nan nan nan nan nan nan nan nan nan nan nan nan nan nan nan nan nan nan nan nan nan nan nan nan nan nan nan nan nan nan nan nan nan nan nan nan nan nan nan nan nan nan nan nan nan nan nan nan nan nan nan nan nan nan nan nan nan nan nan nan nan nan nan nan nan nan nan nan nan nan nan nan nan nan 14 14 62 128 203 264 264 330 408 470 470 480 475 491 491 462 397 397 333 307 332 332 301 284
nan nan nan nan nan nan nan nan nan nan nan nan nan nan nan nan nan nan nan nan nan nan nan nan nan nan nan nan nan nan nan nan nan nan nan nan nan nan nan nan nan nan nan nan nan nan nan nan nan nan nan nan nan nan nan nan nan nan nan nan nan nan nan nan nan nan nan nan nan nan nan nan nan nan nan nan nan nan nan nan nan 7 54 137 206 206 254 304 364 364 406 458 428 428 488 531 531 462 375 372 372 332 319
nan nan nan nan nan nan nan nan nan nan nan nan nan nan nan nan nan nan nan nan nan nan nan nan nan nan nan nan nan nan nan nan nan nan nan nan nan nan nan nan nan nan nan nan nan nan nan nan nan nan nan nan nan nan nan nan nan nan nan nan nan nan nan nan nan nan nan nan nan nan nan nan nan nan nan nan nan nan nan nan nan nan 2 37 96 96 150 206 267 267 335 354 314 314 338 403 403 438 459 443 443 393 346
nan nan nan nan nan nan nan nan nan nan nan nan nan nan nan nan nan nan nan nan nan nan nan nan nan nan nan nan nan nan nan nan nan nan nan nan nan nan nan nan nan nan nan nan nan nan nan nan nan nan nan nan nan nan nan nan nan nan nan nan nan nan nan nan nan nan nan nan nan nan nan nan nan nan nan nan nan nan nan nan nan nan nan nan 8 8 45 98 168 168 238 280 299 299 310 326 326 352 439 443 443 419 370
nan nan nan nan nan nan nan nan nan nan nan nan nan nan nan nan nan nan nan nan nan nan nan nan nan nan nan nan nan nan nan nan nan nan nan nan nan nan nan nan nan nan nan nan nan nan nan nan nan nan nan nan nan nan nan nan nan nan nan nan nan nan nan nan nan nan nan nan nan nan nan nan nan nan nan nan nan nan nan nan nan nan nan nan nan nan 6 20 55 55 115 175 228 228 245 298 298 308 316 331 331 325 321
nan nan nan nan nan nan nan nan nan nan nan nan nan nan nan nan nan nan nan nan nan nan nan nan nan nan nan nan nan nan nan nan nan nan nan nan nan nan nan nan nan nan nan nan nan nan nan nan nan nan nan nan nan nan nan nan nan nan nan nan nan nan nan nan nan nan nan nan nan nan nan nan nan nan nan nan nan nan nan nan nan nan nan nan nan nan nan 2 13 13 35 63 104 104 132 167 167 199 215 255 255 269 279
nan nan nan nan nan nan nan nan nan nan nan nan nan nan nan nan nan nan nan nan nan nan nan nan nan nan nan nan nan nan nan nan nan nan nan nan nan nan nan nan nan nan nan nan nan nan nan nan nan nan nan nan nan nan nan nan nan nan nan nan nan nan nan nan nan nan nan nan nan nan nan nan nan nan nan nan nan nan nan nan nan nan nan nan nan nan nan nan nan nan nan 21 47 47 75 98 98 117 127 154 154 177 216
nan nan nan nan nan nan nan nan nan nan nan nan nan nan nan nan nan nan nan nan nan nan nan nan nan nan nan nan nan nan nan nan nan nan nan nan nan nan nan nan nan nan nan nan nan nan nan nan nan nan nan nan nan nan nan nan nan nan nan nan nan nan nan nan nan nan nan nan nan nan nan nan nan nan nan nan nan nan nan nan nan nan nan nan nan nan nan nan nan nan nan nan 17 17 45 68 68 77 86 102 102 98 134
nan nan nan nan nan nan nan nan nan nan nan nan nan nan nan nan nan nan nan nan nan nan nan nan nan nan nan nan nan nan nan nan nan nan nan nan nan nan nan nan nan nan nan nan nan nan nan nan nan nan nan nan nan nan nan nan nan nan nan nan nan nan nan nan nan nan nan nan nan nan nan nan nan nan nan nan nan nan nan nan nan nan nan nan nan nan nan nan nan nan nan nan nan nan 2 35 35 73 89 106 106 116 132
nan nan nan nan nan nan nan nan nan nan nan nan nan nan nan nan nan nan nan nan nan nan nan nan nan nan nan nan nan nan nan nan nan nan nan nan nan nan nan nan nan nan nan nan nan nan nan nan nan nan nan nan nan nan nan nan nan nan nan nan nan nan nan nan nan nan nan nan nan nan nan nan nan nan nan nan nan nan nan nan nan nan nan nan nan nan nan nan nan nan nan nan nan nan nan 0 0 31 72 95 95 127 140
nan nan nan nan nan nan nan nan nan nan nan nan nan nan nan nan nan nan nan nan nan nan nan nan nan nan nan nan nan nan nan nan nan nan nan nan nan nan nan nan nan nan nan nan nan nan nan nan nan nan nan nan nan nan nan nan nan nan nan nan nan nan nan nan nan nan nan nan nan nan nan nan nan nan nan nan nan nan nan nan nan nan nan nan nan nan nan nan nan nan nan nan nan nan nan nan nan 13 58 108 108 156 186
nan nan nan nan nan nan nan nan nan nan nan nan nan nan nan nan nan nan nan nan nan nan nan nan nan nan nan nan nan nan nan nan nan nan nan nan nan nan nan nan nan nan nan nan nan nan nan nan nan nan nan nan nan nan nan nan nan nan nan nan nan nan nan nan nan nan nan nan nan nan nan nan nan nan nan nan nan nan nan nan nan nan nan nan nan nan nan nan nan nan nan nan nan nan nan 9 9 27 72 131 131 184 228
nan nan nan nan nan nan nan nan nan nan nan nan nan nan nan nan nan nan nan nan nan nan nan nan nan nan nan nan nan nan nan nan nan nan nan nan nan nan nan nan nan nan nan nan nan nan nan nan nan nan nan nan nan nan nan nan nan nan nan nan nan nan nan nan nan nan nan nan nan nan nan nan nan nan nan nan nan nan nan nan nan nan nan nan nan nan nan nan nan nan nan nan nan nan nan 35 35 57 86 131 131 161 208
nan nan nan nan nan nan nan nan nan nan nan nan nan nan nan nan nan nan nan nan nan nan nan nan nan nan nan nan nan nan nan nan nan nan nan nan nan nan nan nan nan nan nan nan nan nan nan nan nan nan nan nan nan nan nan nan nan nan nan nan nan nan nan nan nan nan nan nan nan nan nan nan nan nan nan nan nan nan nan nan nan nan nan nan nan nan nan nan nan nan nan nan nan nan nan 41 41 70 74 85 85 106 154
nan nan nan nan nan nan nan nan nan nan nan nan nan nan nan nan nan nan nan nan nan nan nan nan nan nan nan nan nan nan nan nan nan nan nan nan nan nan nan nan nan nan nan nan nan nan nan nan nan nan nan nan nan nan nan nan nan nan nan nan nan nan nan nan nan nan nan nan nan nan nan nan nan nan nan nan nan nan nan nan nan nan nan nan nan nan nan nan nan nan nan nan nan nan nan 50 50 53 51 67 67 85 110
nan nan nan nan nan nan nan nan nan nan nan nan nan nan nan nan nan nan nan nan nan nan nan nan nan nan nan nan nan nan nan nan nan nan nan nan nan nan nan nan nan nan nan nan nan nan nan nan nan nan nan nan nan nan nan nan nan nan nan nan nan nan nan nan nan nan nan nan nan nan nan nan nan nan nan nan nan nan nan nan nan nan nan nan nan nan nan nan nan nan nan nan nan nan 14 41 41 36 43 59 59 70 100
nan nan nan nan nan nan nan nan nan nan nan nan nan nan nan nan nan nan nan nan nan nan nan nan nan nan nan nan nan nan nan nan nan nan nan nan nan nan nan nan nan nan nan nan nan nan nan nan nan nan nan nan nan nan nan nan nan nan nan nan nan nan nan nan nan nan nan nan nan nan nan nan nan nan nan nan nan nan nan nan nan nan nan nan nan nan nan nan nan nan nan nan nan nan 42 32 32 27 35 52 52 73 103
nan nan nan nan nan nan nan nan nan nan nan nan nan nan nan nan nan nan nan nan nan nan nan nan nan nan nan nan nan nan nan nan nan nan nan nan nan nan nan nan nan nan nan nan nan nan nan nan nan nan nan nan nan nan nan nan nan nan nan nan nan nan nan nan nan nan nan nan nan nan nan nan nan nan nan nan nan nan nan nan nan nan nan nan nan nan nan nan nan nan nan nan 1 1 59 38 38 30 37 56 56 80 109
nan nan nan nan nan nan nan nan nan nan nan nan nan nan nan nan nan nan nan nan nan nan nan nan nan nan nan nan nan nan nan nan nan nan nan nan nan nan nan nan nan nan nan nan nan nan nan nan nan nan nan nan nan nan nan nan nan nan nan nan nan nan nan nan nan nan nan nan nan nan nan nan nan nan nan nan nan nan nan nan nan nan nan nan nan nan nan nan nan nan nan nan 6 6 61 44 44 31 40 56 56 86 118